Date String (YYYY-MM-DD hh:mm:ss) UTC,Instrument flags,Ambient pressure (hPa),Sample flow (lpm),Bypass flow (lpm),Sample temperature (°C),Ambient temperature (°C),ASC tube jacket temperature (°C),LED temperature (°C),Box temperature (°C),Sample RH (%),Span deviation,Mass concentration (μg/m³),Mass concentration (μg/m³),Mass concentration (μg/m³)
DateTimeUTC,F1_M11,P_M11,Q1_M11,Q2_M11,T1_M11,T2_M11,T3_M11,T4_M11,T5_M11,U1_M11,ZSPAN_M11,X2_M11,X0_M11,X1_M11
2021-12-23 22:00:00,,0814.4,5.00,0.00,25.6,24.6,00.0,34.8,27.4,17.7,0000.0,0000.26,0000.57,0000.18
2021-12-23 22:01:00,,0814.6,5.02,0.00,25.6,24.6,00.0,34.8,27.4,17.6,0000.0,0000.26,0000.56,0000.18
2021-12-23 22:02:00,,0814.4,5.00,0.00,25.6,24.6,00.0,34.8,27.3,17.6,0000.0,0000.26,0000.45,0000.18
2021-12-23 22:03:00,,0814.8,5.00,0.00,25.6,24.6,00.0,34.7,27.3,17.6,0000.0,0000.28,0000.48,0000.19
2021-12-23 22:04:00,,0815.2,5.00,0.00,25.6,24.6,00.0,34.7,27.2,17.6,0000.0,0000.29,0000.50,0000.19
2021-12-23 22:05:00,,0814.9,5.01,0.00,25.6,24.6,00.0,34.7,27.3,17.6,0000.0,0000.30,0000.57,0000.20
2021-12-23 22:06:00,,0814.9,4.99,0.00,25.6,24.6,00.0,34.7,27.3,17.6,0000.0,0000.30,0000.89,0000.20
2021-12-23 22:07:00,,0814.4,4.99,0.00,25.6,24.6,00.0,34.7,27.3,17.6,0000.0,0000.30,0000.88,0000.21
2021-12-23 22:08:00,,0814.4,5.02,0.00,25.6,24.6,00.0,34.7,27.3,17.6,0000.0,0000.28,0000.83,0000.20
2021-12-23 22:09:00,,0814.4,4.99,0.00,25.5,24.5,00.0,34.7,27.3,17.6,0000.0,0000.27,0000.79,0000.19
2021-12-23 22:10:00,,0814.3,5.01,0.00,25.5,24.5,00.0,34.6,27.2,17.5,0000.0,0000.26,0000.79,0000.19
2021-12-23 22:11:00,,0814.3,4.99,0.00,25.5,24.5,00.0,34.6,27.2,17.5,0000.0,0000.26,0000.79,0000.18
2021-12-23 22:12:00,,0814.3,5.00,0.00,25.5,24.5,00.0,34.6,27.1,17.7,0000.0,0000.25,0000.80,0000.18
2021-12-23 22:13:00,,0814.3,5.01,0.00,25.5,24.6,00.0,34.6,27.1,17.7,0000.0,0000.27,0000.84,0000.18
2021-12-23 22:14:00,,0814.3,5.00,0.00,25.5,24.5,00.0,34.6,27.1,17.6,0000.0,0000.26,0000.84,0000.18
2021-12-23 22:15:00,,0814.4,5.01,0.00,25.5,24.6,00.0,34.6,27.1,17.6,0000.0,0000.25,0000.81,0000.17
2021-12-23 22:16:00,,0814.4,4.99,0.00,25.5,24.6,00.0,34.6,27.2,17.6,0000.0,0000.23,0000.70,0000.16
2021-12-23 22:17:00,,0814.4,4.99,0.00,25.5,24.5,00.0,34.6,27.2,17.6,0000.0,0000.23,0000.39,0000.16
2021-12-23 22:18:00,,0814.3,5.01,0.00,25.5,24.5,00.0,34.5,27.2,17.6,0000.0,0000.25,0000.56,0000.16
2021-12-23 22:19:00,,0814.5,4.99,0.00,25.4,24.5,00.0,34.5,27.2,17.7,0000.0,0000.25,0000.57,0000.16
2021-12-23 22:20:00,,0814.5,5.00,0.00,25.4,24.5,00.0,34.5,27.2,17.8,0000.0,0000.25,0000.57,0000.16
2021-12-23 22:21:00,,0814.4,5.02,0.00,25.4,24.5,00.0,34.5,27.2,17.8,0000.0,0000.25,0000.58,0000.16
2021-12-23 22:22:00,,0814.4,4.99,0.00,25.4,24.5,00.0,34.5,27.2,17.8,0000.0,0000.26,0000.55,0000.17
2021-12-23 22:23:00,,0814.5,4.99,0.00,25.4,24.4,00.0,34.5,27.2,17.8,0000.0,0000.26,0000.54,0000.17
2021-12-23 22:24:00,,0814.5,5.02,0.00,25.4,24.4,00.0,34.5,27.1,17.8,0000.0,0000.27,0000.55,0000.18
2021-12-23 22:25:00,,0814.6,4.99,0.00,25.4,24.4,00.0,34.5,27.1,17.8,0000.0,0000.28,0000.56,0000.18
2021-12-23 22:26:00,,0814.9,5.00,0.00,25.4,24.4,00.0,34.5,27.1,17.8,0000.0,0000.29,0000.61,0000.18
2021-12-23 22:27:00,,0815.0,5.00,0.00,25.4,24.4,00.0,34.4,27.1,17.7,0000.0,0000.31,0000.66,0000.18
2021-12-23 22:28:00,,0814.8,5.01,0.00,25.4,24.4,00.0,34.4,27.1,17.7,0000.0,0000.31,0000.67,0000.18
2021-12-23 22:29:00,,0814.8,4.99,0.00,25.4,24.4,00.0,34.4,27.1,17.7,0000.0,0000.30,0000.52,0000.18
2021-12-23 22:30:00,,0814.8,5.00,0.00,25.3,24.3,00.0,34.4,27.1,17.8,0000.0,0000.34,0000.65,0000.20
2021-12-23 22:31:00,,0814.7,5.00,0.00,25.3,24.3,00.0,34.4,27.0,17.8,0000.0,0000.40,0001.06,0000.21
2021-12-23 22:32:00,,0814.8,5.00,0.00,25.3,24.3,00.0,34.4,26.9,17.9,0000.0,0000.44,0002.51,0000.22
2021-12-23 22:33:00,,0814.8,5.00,0.00,25.3,24.3,00.0,34.4,26.9,18.0,0000.0,0000.42,0002.48,0000.22
2021-12-23 22:34:00,,0814.9,5.01,0.00,25.3,24.3,00.0,34.4,26.9,18.1,0000.0,0000.42,0002.47,0000.21
2021-12-23 22:35:00,,0814.9,4.99,0.00,25.3,24.3,00.0,34.3,26.9,18.3,0000.0,0000.40,0002.43,0000.22
2021-12-23 22:36:00,,0814.9,5.01,0.00,25.2,24.3,00.0,34.3,26.9,18.3,0000.0,0000.41,0002.46,0000.22
2021-12-23 22:37:00,,0814.9,5.01,0.00,25.2,24.2,00.0,34.3,26.9,18.2,0000.0,0000.40,0002.43,0000.23
2021-12-23 22:38:00,,0814.9,4.99,0.00,25.2,24.2,00.0,34.3,26.9,18.2,0000.0,0000.39,0002.86,0000.23
2021-12-23 22:39:00,,0815.0,5.01,0.00,25.2,24.2,00.0,34.3,26.9,18.3,0000.0,0000.41,0003.62,0000.24
2021-12-23 22:40:00,,0815.1,5.00,0.00,25.2,24.2,00.0,34.3,26.8,18.3,0000.0,0000.43,0004.62,0000.24
2021-12-23 22:41:00,,0815.3,5.00,0.00,25.2,24.1,00.0,34.3,26.8,18.3,0000.0,0000.42,0004.57,0000.24
2021-12-23 22:42:00,,0815.3,5.01,0.00,25.2,24.2,00.0,34.3,26.8,18.1,0000.0,0000.38,0004.47,0000.24
2021-12-23 22:43:00,,0815.4,4.99,0.00,25.2,24.2,00.0,34.2,26.8,18.0,0000.0,0000.33,0002.93,0000.23
2021-12-23 22:44:00,,0815.4,4.99,0.00,25.2,24.2,00.0,34.2,26.8,18.0,0000.0,0000.35,0002.78,0000.24
2021-12-23 22:45:00,,0815.4,5.01,0.00,25.2,24.2,00.0,34.2,26.8,18.1,0000.0,0000.36,0002.83,0000.24
2021-12-23 22:46:00,,0815.3,5.00,0.00,25.1,24.2,00.0,34.2,26.8,18.2,0000.0,0000.34,0002.80,0000.23
2021-12-23 22:47:00,,0815.1,5.00,0.00,25.1,24.2,00.0,34.2,26.8,18.7,0000.0,0000.31,0002.75,0000.21
2021-12-23 22:48:00,,0815.3,5.00,0.00,25.1,24.2,00.0,34.2,26.8,19.0,0000.0,0000.30,0002.75,0000.20
2021-12-23 22:49:00,,0815.1,4.99,0.00,25.1,24.2,00.0,34.2,26.7,19.6,0000.0,0000.29,0002.96,0000.19
2021-12-23 22:50:00,,0815.2,5.00,0.00,25.1,24.2,00.0,34.2,26.7,20.0,0000.0,0000.26,0002.66,0000.18
2021-12-23 22:51:00,,0815.2,5.00,0.00,25.1,24.2,00.0,34.2,26.7,20.2,0000.0,0000.25,0001.64,0000.17
2021-12-23 22:52:00,,0815.1,4.99,0.00,25.1,24.2,00.0,34.2,26.8,19.8,0000.0,0000.24,0001.61,0000.16
2021-12-23 22:53:00,,0815.1,5.01,0.00,25.1,24.2,00.0,34.2,26.8,19.9,0000.0,0000.24,0001.64,0000.15
2021-12-23 22:54:00,,0815.1,4.99,0.00,25.1,24.2,00.0,34.2,26.8,19.9,0000.0,0000.24,0001.65,0000.14
2021-12-23 22:55:00,,0815.1,5.01,0.00,25.1,24.2,00.0,34.2,26.7,19.9,0000.0,0000.22,0001.60,0000.13
2021-12-23 22:56:00,,0815.0,5.01,0.00,25.1,24.2,00.0,34.2,26.7,20.1,0000.0,0000.21,0001.54,0000.13
2021-12-23 22:57:00,,0814.8,4.99,0.00,25.1,24.2,00.0,34.2,26.8,20.1,0000.0,0000.21,0001.55,0000.13
2021-12-23 22:58:00,,0814.9,5.01,0.00,25.1,24.2,00.0,34.1,26.7,20.1,0000.0,0000.22,0001.54,0000.14
2021-12-23 22:59:00,,0814.9,5.00,0.00,25.1,24.1,00.0,34.1,26.7,20.4,0000.0,0000.21,0001.52,0000.14
